Torna al catalogo

GSAT 6A

AttivoComunicazioniMEO
NORAD 43241·PAYLOAD·🇮🇳 India

Lanciato Mar 29, 2018 da Satish Dhawan Space Centre

Loading…

Prossimi Passaggi (prossime 24 ore)

TLE

AggiornatoSource: Space-Track

Epoca: Sep 14, 2026, 14:25 UTC

1 43241U 18027A   26257.60096564 -.00000111  00000-0  00000-0 0  9994
2 43241   3.4329  79.5148 1322373 116.7136 189.6424  1.19316384 36927

Traccia GSAT 6A in tempo reale con AllMySat

Download on the App Store